STARLINK-2090 (47677 NORAD) Tracking and Keplerian Element Data

This shows tracking and keplerian element data for the satellite.

Feedback or suggestion? Click here.




ElementValue
Catalog47677
NameSTARLINK-2090
Epoch Orbit175
Epoch Day101.91668981
Epoch Year2021
RAAN199.6764
Inclination53.0523
Eccentricity0.0001314
Argument of Perigee82.3401
Mean Anonmoly355.7793
Mean Motion15.06398063
Decay Rate-0.00034571
L11 47677U 21012BK 21101.91668981 -.00034571 00000-0 -23134-2 0 9997
L22 47677 53.0523 199.6764 0001314 82.3401 355.7793 15.06398063 1753

Live tracking and technical data element details for STARLINK-2090 (NORAD 47677). STARLINK-2090 can be tracked NOW for your location showing map with azimuth and elevation plus other details from your city location.

Track the satellite on the map from your city or location and see movement details for azimuth, elevation, latitude, longitude, range, height, and movement on the map or in text.







IsCatalogInMostPopularTable: catalog: 47677, numindb: 21
Update: records affected: 1



GetName: 47677 STARLINK-2090

Hit Count: updated at: Tue, 13 Apr 2021 03:51:12 GMT